Regional Weather Roundup
Issued by NWS

Home | Current Version | Previous Version | Text Only | Print | Product List | Glossary Off
Versions: 1 2 3 4 5 6 7 8 9 10 11 12 13 14 15 16 17 18 19 20 21 22 23 24 25 26 27 28 29 30 31 32 33 34 35 36 37 38 39 40 41 42 43 44 45 46 47 48 49 50

000
ASUS43 KLOT 201510
RWRIL

ILLINOIS REGIONAL WEATHER ROUNDUP
NATIONAL WEATHER SERVICE CHICAGO/ROMEOVILLE IL
1000 AM CDT SUN APR 20 2014

NOTE: "FAIR" INDICATES FEW OR NO CLOUDS BELOW 12,000 FEET WITH NO
SIGNIFICANT WEATHER AND/OR OBSTRUCTIONS TO VISIBILITY.

* THESE STATIONS ARE NOT UNDER NWS QUALITY CONTROL. THEY ALSO MAY NOT
  REPORT WEATHER SUCH AS PRECIPITATION OR FOG.

ILZ001-002-007-009-015-016-024-201600-
NORTHWEST ILLINOIS

CITY           SKY/WX    TMP DP  RH WIND       PRES   REMARKS
MOLINE         MOSUNNY   70  42  36 SW10      30.12F
STERLING*      MOSUNNY   66  43  42 S7        30.15F
SAVANNA*       MOSUNNY   65  40  38 S10       30.14S
$$

ILZ003-004-008-010-011-017-018-201600-
NORTH CENTRAL ILLINOIS

CITY           SKY/WX    TMP DP  RH WIND       PRES   REMARKS
ROCKFORD       PTSUNNY   63  39  41 S17       30.18F
FREEPORT*      PTSUNNY   64  42  44 S17       30.16F
ROCHELLE*      MOSUNNY   63  38  39 S15       30.17F
DE KALB*       MOSUNNY   60  38  44 S16       30.19F
PERU*          SUNNY     65  42  43 S12       30.18S
$$

ILZ005-006-012>014-019>023-201600-
NORTHEAST ILLINOIS

CITY           SKY/WX    TMP DP  RH WIND       PRES   REMARKS
CHICAGO-OHARE  PTSUNNY   63  34  33 S10       30.20F
CHICAGO-MIDWAY PTSUNNY   62  35  36 S12       30.21F
AURORA         MOSUNNY   61  38  42 S14       30.20F
LANSING*       SUNNY     61  33  35 S12       30.23F
WAUKEGAN       PTSUNNY   59  33  37 S8        30.19F
DUPAGE AIRPORT MOSUNNY   62  36  37 S14       30.20F
KANKAKEE*      MOSUNNY   60  39  46 S7        30.23F
WHEELING       MOSUNNY   63  36  36 S10       30.21F
MORRIS*        SUNNY     63  31  30 S15G21    30.20S
ROMEOVILLE*    SUNNY     62  35  36 S12       30.21S
NORTHERLY ISL    N/A     60  31  33 SE7         N/A
$$

LMZ740>746-201600-
SOUTHERN LAKE MICHIGAN

STATION/POSITION SKY/WX   TEMP    WIND        PRES    VSBY  WAVE
                          AIR SEA DIR/SP/G                  HT/PER
                          (F)     (DEG/KT/KT) (MB)    (MI)  (FT/S)
WAUKEGAN HARBOR            47     140/ 11/ 13 1023.7S
HARRISON CRIB              50     160/ 13/ 15   N/A
BURNHAM HARBOR             62     170/ 11/ 14   N/A
CALUMET HARBOR             58     180/ 10/ 16 1023.8F
MICHIGAN CITY              57     160/ 13/ 19   N/A
$$

ILZ025>027-034>036-040-047-049-050-058-095>099-201600-
WEST-CENTRAL ILLINOIS

CITY           SKY/WX    TMP DP  RH WIND       PRES   REMARKS
QUINCY         MOSUNNY   70  45  40 S16       30.15F
GALESBURG*     SUNNY     68  45  44 S10       30.16S
MACOMB*        MOSUNNY   68  42  39 S12       30.18S
JACKSONVILLE*  MOSUNNY   71  40  33 S10G17    30.19S
PITTSFIELD*    SUNNY     71  42  36 S12G18    30.18S
$$

ILZ028>032-037-038-041>044-048-051>054-059>061-201600-
CENTRAL ILLINOIS

CITY           SKY/WX    TMP DP  RH WIND       PRES   REMARKS
PONTIAC        SUNNY     66  39  37 S15       30.20S
BLOOMINGTON    MOSUNNY   64  39  39 S15       30.22R
DECATUR        MOSUNNY   68  39  34 S18       30.21F
PEORIA         MOSUNNY   66  42  41 S14       30.19S
LACON*         SUNNY     66  41  40 SW10      30.18S
LINCOLN*       MOSUNNY   66  40  38 S10       30.19F
SPRINGFIELD    MOSUNNY   69  40  34 S10       30.20S
TAYLORVILLE    SUNNY     66  41  39 S12       30.21S
$$

ILZ033-039-045-046-055>057-062-063-201600-
EAST-CENTRAL ILLINOIS

CITY           SKY/WX    TMP DP  RH WIND       PRES   REMARKS
CHAMPAIGN      MOSUNNY   69  39  33 S12       30.22F
RANTOUL*       SUNNY     66  36  32 S12       30.23F
MATTOON        SUNNY     63  42  46 S13       30.22F
PARIS*         SUNNY     65  41  41 SE6       30.24F
$$

ILZ079-100>102-201600-
SOUTHWEST ILLINOIS

CITY           SKY/WX    TMP DP  RH WIND       PRES   REMARKS
ALTON          SUNNY     66  37  34 S9        30.21S
BELLEVILLE     SUNNY     68  45  44 S8        30.20S
CAHOKIA*       SUNNY     69  43  38 S8        30.20S
SPARTA*        MOSUNNY   64  41  42 S9        30.23R
$$

ILZ064>066-069>071-074>076-080>082-084>086-088>090-092>094-201600-
SOUTH-CENTRAL ILLINOIS

CITY           SKY/WX    TMP DP  RH WIND       PRES   REMARKS
CARBONDALE     MOSUNNY   68  42  38 S8        30.22R
CAIRO*         MOSUNNY   71  43  36 SE8       30.23R
MARION         PTSUNNY   70  43  37 S9        30.23R
MT. VERNON     SUNNY    N/A N/A N/A SE6       30.23S
CENTRALIA*       N/A     67  39  35 CALM      30.23R
SALEM*         SUNNY     66  43  42 SE9       30.22S
METROPOLIS*    SUNNY     68  38  33 S6        30.22S
$$

ILZ067-068-072-073-078-083-087-091-201600-
SOUTHEAST ILLINOIS

CITY           SKY/WX    TMP DP  RH WIND       PRES   REMARKS
FAIRFIELD*     SUNNY     68  45  42 SE6       30.22F
HARRISBURG*    SUNNY     66  45  45 SE3       30.24S
ROBINSON*      MOSUNNY   64  45  50 S5        30.26S
CARMI*         MOSUNNY   67  46  46 SE6       30.23F
$$

ABBREVIATIONS USED IN REMARKS
   TC - TEMPERATURE IN CELSIUS
  WCI - WIND CHILL INDEX
   HX - HEAT INDEX
  VSB - VISIBILITY
$$




USA.gov is the U.S. government's official web portal to all federal, state and local government web resources and services.